Weather History for Bucharest, Romania

Change the Weather History Date:

Saturday, August 31, 2013

  Actual Average Record
Temperature  
Mean Temperature 64 °F -  
Max Temperature 78 °F 78 °F 95 °F (2003)
Min Temperature 50 °F 58 °F 50 °F (2006)
Degree Days  
Heating Degree Days 1    
Growing Degree Days 14 (Base 50)    
Moisture  
Dew Point 54 °F    
Average Humidity 65    
Maximum Humidity 100    
Minimum Humidity 27    
Precipitation  
Precipitation 0.00 in - - ()
Sea Level Pressure  
Sea Level Pressure 30.04 in    
Wind  
Wind Speed 2 mph ()    
Max Wind Speed 13 mph    
Max Gust Speed -    
Visibility 6.0 miles    
Events      
Averages and records for this station are not official NWS values.
T = Trace of Precipitation, MM = Missing Value Source: Averaged Metar Reports

Daily Weather History Graph

Daily Weather History Graph

Search for Another Location

Airport:

Trip Planner

Search our weather history database for the weather conditions in past years. The results will help you decide how hot, cold, wet, or windy it might be!

Date:

Astronomy

Aug. 31, 2013 Rise Set
Actual Time 6:37 AM EEST 7:54 PM EEST
Civil Twilight 6:06 AM EEST 8:24 PM EEST
Nautical Twilight 5:30 AM EEST 9:00 PM EEST
Astronomical Twilight 4:52 AM EEST 9:38 PM EEST
Moon 1:42 AM EEST (8/31) 4:45 PM EEST (8/31)
Length of Visible Light 14h 17m
Length of Day
13h 16m
Waning Crescent, 23% of the Moon is Illuminated
Aug 31
Waning Crescent
Sep 5
New
Sep 12
First Quarter
Sep 19
Full
Sep 27
Last Quarter

Hourly Weather History & Observations

Time (EEST) Temp. Dew Point Humidity Pressure Visibility Wind Dir Wind Speed Gust Speed Precip Events Conditions
12:00 AM 56 °F 56 °F 99% 30.05 in 6 mi West 2.2 mph - -   Scattered Clouds
12:00 AM 62.6 °F 60.8 °F 94% 30.04 in - West 2.3 mph - N/A   Clear
12:30 AM 60.8 °F 59.0 °F 94% 30.04 in - Calm Calm - N/A   Clear
1:00 AM 56 °F 55 °F 97% 30.05 in 6 mi NNE 2.2 mph - -   Partly Cloudy
1:00 AM 60.8 °F 59.0 °F 94% 30.04 in - WNW 2.3 mph - N/A   Clear
1:30 AM 60.8 °F 59.0 °F 94% 30.04 in - West 4.6 mph - N/A   Clear
2:00 AM 58 °F 58 °F 99% 30.04 in 6 mi West 2.2 mph - -   Mostly Cloudy
2:00 AM 60.8 °F 59.0 °F 94% 30.04 in - West 3.5 mph - N/A   Clear
2:30 AM 60.8 °F 59.0 °F 94% 30.04 in - Variable 2.3 mph - N/A   Clear
3:00 AM 59.0 °F 59.0 °F 100% 30.04 in - WNW 2.3 mph - N/A   Clear
3:30 AM 59.0 °F 57.2 °F 94% 30.04 in - Variable 2.3 mph - N/A   Unknown
4:00 AM 56 °F 56 °F 100% 30.04 in 6 mi WNW 2.2 mph - -  
4:00 AM 59.0 °F 57.2 °F 94% 30.04 in - Variable 1.2 mph - N/A   Clear
4:30 AM 57.2 °F 57.2 °F 100% 30.04 in - Variable 1.2 mph - N/A   Clear
5:00 AM 57 °F 57 °F 98% 30.03 in 6 mi NNW 4.5 mph - -  
5:00 AM 57.2 °F 57.2 °F 100% 30.04 in - SW 2.3 mph - N/A   Clear
5:30 AM 57.2 °F 57.2 °F 100% 30.04 in - West 1.2 mph - N/A   Clear
6:00 AM 57.2 °F 55.4 °F 94% 30.04 in - WSW 2.3 mph - N/A   Clear
6:30 AM 57.2 °F 55.4 °F 94% 30.04 in - West 3.5 mph - N/A   Clear
7:00 AM 52 °F 52 °F 100% 30.06 in 6 mi West 2.2 mph - -   Scattered Clouds
7:00 AM 57.2 °F 55.4 °F 94% 30.04 in - WSW 3.5 mph - N/A   Clear
7:30 AM 59.0 °F 57.2 °F 94% 30.04 in - Variable 2.3 mph - N/A   Clear
8:00 AM 64.4 °F 57.2 °F 77% 30.06 in - Variable 1.2 mph - N/A   Clear
8:30 AM 66.2 °F 57.2 °F 73% 30.06 in - Calm Calm - N/A   Clear
9:00 AM 64 °F 57 °F 73% 30.06 in 6 mi Calm Calm - -   Partly Cloudy
9:00 AM 68.0 °F 57.2 °F 68% 30.06 in - Calm Calm - N/A   Clear
9:30 AM 69.8 °F 53.6 °F 56% 30.06 in - Variable 2.3 mph - N/A   Clear
10:00 AM 71.6 °F 53.6 °F 53% 30.06 in - Variable 1.2 mph - N/A   Clear
10:30 AM 73.4 °F 53.6 °F 50% 30.06 in - Variable 1.2 mph - N/A   Clear
11:00 AM 72 °F 53 °F 41% 30.05 in 6 mi SE 2.2 mph - -   Scattered Clouds
11:00 AM 73.4 °F 50.0 °F 44% 30.06 in - Calm Calm - N/A   Clear
11:30 AM 75.2 °F 50.0 °F 41% 30.04 in - Variable 3.5 mph - N/A   Clear
12:00 PM 74 °F 49 °F 31% 30.05 in 6 mi NE 2.2 mph - -   Scattered Clouds
12:00 PM 77.0 °F 46.4 °F 34% 30.04 in - NNE 4.6 mph - N/A   Clear
12:30 PM 77.0 °F 48.2 °F 36% 30.04 in - ENE 5.8 mph - N/A   Clear
1:00 PM 75 °F 51 °F 33% 30.03 in 6 mi East 4.5 mph - -   Partly Cloudy
1:00 PM 77.0 °F 46.4 °F 34% 30.04 in - Variable 3.5 mph - N/A   Clear
1:30 PM 77.0 °F 48.2 °F 36% 30.04 in - Variable 4.6 mph - N/A   Clear
2:00 PM 76 °F 50 °F 29% 30.02 in 6 mi East 4.5 mph - -   Partly Cloudy
2:00 PM 78.8 °F 46.4 °F 32% 30.04 in - NE 5.8 mph - N/A   Clear
2:30 PM 75.2 °F 46.4 °F 36% 30.04 in - Calm Calm - N/A   Clear
3:00 PM 77 °F 50 °F 28% 30.02 in 6 mi NNW 2.2 mph - -   Partly Cloudy
3:00 PM 78.8 °F 46.4 °F 32% 30.01 in - SSW 4.6 mph - N/A   Clear
3:30 PM 77.0 °F 42.8 °F 29% 30.01 in - North 3.5 mph - N/A   Clear
4:00 PM 75 °F 48 °F 27% 30.01 in 6 mi NNW 2.2 mph - -   Mostly Cloudy
4:00 PM 73.4 °F 55.4 °F 53% 30.01 in - SSW 12.7 mph - N/A   Clear
4:30 PM 75.2 °F 53.6 °F 47% 30.01 in - SSW 8.1 mph - N/A   Clear
5:00 PM 77.0 °F 50.0 °F 39% 30.01 in - SSW 6.9 mph - N/A   Clear
5:30 PM 77.0 °F 48.2 °F 36% 30.01 in - SW 6.9 mph - N/A   Clear
6:00 PM 77 °F 52 °F 31% 30.01 in 6 mi SW 4.5 mph - -   Scattered Clouds
6:00 PM 77.0 °F 48.2 °F 36% 30.01 in - SW 4.6 mph - N/A   Clear
6:30 PM 75.2 °F 48.2 °F 38% 30.01 in - SSW 3.5 mph - N/A   Clear
7:00 PM 73 °F 56 °F 46% 30.01 in 6 mi WSW 2.2 mph - -   Mostly Cloudy
7:00 PM 75.2 °F 48.2 °F 38% 30.01 in - Variable 2.3 mph - N/A   Clear
7:30 PM 75.2 °F 50.0 °F 41% 30.01 in - Variable 2.3 mph - N/A   Clear
8:00 PM 71 °F 53 °F 43% 30.01 in 6 mi West 2.2 mph - -   Partly Cloudy
8:00 PM 73.4 °F 50.0 °F 44% 30.04 in - NW 2.3 mph - N/A   Clear
8:30 PM 71.6 °F 51.8 °F 50% 30.04 in - Calm Calm - N/A   Clear
9:00 PM 60 °F 57 °F 85% 30.04 in 6 mi NW 2.2 mph - -   Scattered Clouds
9:00 PM 69.8 °F 55.4 °F 60% 30.04 in - Calm Calm - N/A   Unknown
9:30 PM 68.0 °F 55.4 °F 64% 30.04 in - Calm Calm - N/A   Clear
10:00 PM 57 °F 56 °F 93% 30.05 in 6 mi NW 2.2 mph - -  
10:00 PM 64.4 °F 57.2 °F 77% 30.06 in - NNW 1.2 mph - N/A   Clear
10:30 PM 64.4 °F 55.4 °F 73% 30.06 in - Variable 2.3 mph - N/A   Clear
11:00 PM 64.4 °F 55.4 °F 73% 30.06 in - Calm Calm - N/A   Clear
11:30 PM 62.6 °F 55.4 °F 77% 30.06 in - NW 3.5 mph - N/A   Unknown